{"data":{"norad_id":55815,"intl_designator":"2023-029V","name":"ONEWEB-0653","alt_names":[],"object_type":"PAYLOAD","status":"ACTIVE","operator":null,"country":"UK","launch_date":"2023-03-09","launch_site_code":"AFETR","launch_vehicle":null,"mission":null,"orbit_class":"UNKNOWN","rcs_meters":null,"size_class":null,"mass_kg":null,"dimensions":null,"purposes":["comms"],"wikipedia_slug":null,"has_3d_model":false,"image_url":null,"decayed_at":null,"tle_current":{"epoch":"2026-05-25T03:59:05.773056Z","epoch_age_seconds":56701,"freshness":"FRESH","line1":"1 55815U 23029V   26145.16603904  .00000241  00000+0  61550-3 0  9993","line2":"2 55815  87.8942 294.3000 0001887  95.6525 264.4820 13.14501774156379","mean_motion":13.14501774,"eccentricity":0.0001887,"inclination_deg":87.8942,"raan_deg":294.3,"arg_perigee_deg":95.6525,"mean_anomaly_deg":264.482,"bstar":0.0006155,"rev_number":15637,"period_min":109.54720856847,"perigee_km":1204.3632130978,"apogee_km":1207.2253887707,"semimajor_km":7583.9313009342,"source":"CELESTRAK","updated_at":"2026-05-25T13:38:22.694415Z"}}}